Погода в Александровке

Россия / Чувашская Республика     55°16′03″N   47°35′45″E
темп.,
°C
ветер,
м/с
пор.,
м/с
влажн.,
%
обл.,
%
осадки,
мм/ч
давл.,
гПа
погр.,
м
21 апреля, ср
ср2100:00+5юв91742100 0.0 1023732
03:00+4юв101947100 0.0 1022738
06:00+3юв101964100 0.9 1021823
09:00+3юв101976100 2.9 1021862
12:00+3юв101871100 0.2 1020757
15:00+3юв111878100 0.3 1019797
18:00+2ююв101788100 0.3 1019709
21:00+3ююв81691100 0.3 1019650
22 апреля, чт
чт2200:00+4ю71593100 0.2 1019622
03:00+5ююз4892100 0.3 1020295
06:00+4ююв4895100 0.0 1022224
09:00+7ю6118788 0.0 1022510
12:00+11ю797198 0.0 1022986
15:00+14юз695275 0.4 10211790
18:00+11юз366829 2.3 1022209
21:00+8ююв348993 3.2 1023100
23 апреля, пт
пт2300:00+7ююв35935 0.0 102393
03:00+5ю23945 0.0 102444
06:00+6ююв35954 0.0 1024145
09:00+11ююв44730 0.0 1024529
12:00+14ююв445915 0.0 10231361
15:00+14юв545863 0.1 1022949
18:00+12юв586633 0.0 1022592
21:00+8вюв498290 0.0 1022204
24 апреля, сб
сб2400:00+7вюв3790100 0.0 1020143
03:00+5в379381 0.0 1019188
06:00+5в3691100 0.0 1017225
09:00+9в4578100 0.0 1015585
12:00+10юв5571100 0.0 10141000
15:00+10юв4670100 0.0 1012782
18:00+10вюв587499 0.0 1011566
21:00+7юв6128599 0.0 1010438
25 апреля, вс
вс2500:00+7ююв61388100 0.1 1007538
03:00+5з6108198 2.6 1009963
06:00+5зюз497494 0.0 10101063
09:00+8зюз710555 0.0 10101509
12:00+11зюз683999 0.0 10112535
15:00+11зюз5736100 0.0 10112355
18:00+10з574970 0.0 1011475
21:00+6юз34645 0.1 101483